Location: Doewffingen
(48.7108°N, 8.9134°E)
Time: 23:16:23
(UTC+00:00)

Daily predictions for brighter satellites

Satellite Brightness Start Highest point End
(mag) Time Altitude Azimuth Time Altitude Azimuth Time Altitude Azimuth
Meteor 1-28 Rocket 3.6 15:56:59 10° NNE 16:00:05 34° E 16:03:10 10° SSE
Cosmos 2026 Rocket 4.2 15:55:08 10° N 16:01:23 81° W 16:07:41 10° S
Cosmos 1544 Rocket 4.2 15:59:09 10° SSE 16:03:12 37° E 16:07:17 10° NNE
Cosmos 1484 Rocket 2.5 16:00:30 10° SSE 16:04:00 66° ENE 16:07:28 10° N
Cosmos 1697 Rocket 4.2 16:01:00 10° SE 16:04:35 18° E 16:08:10 10° ENE
NOSS 2-2 (E) 3.6 16:01:48 10° SSW 16:04:58 36° SE 16:07:49 10° ENE
BREEZE M DEB (TANK) 4.2 15:48:12 10° WNW 16:06:38 84° SSW 16:11:03 10° ESE
Intercosmos 24 3.8 16:05:17 10° N 16:09:11 55° ENE 16:12:39 10° SSE
Cosmos 1634 Rocket 4.0 16:03:04 10° S 16:09:14 77° E 16:15:24 10° NNE
Cosmos 405 Rocket 2.2 16:06:07 10° N 16:09:22 64° ENE 16:12:34 10° SSE
Lacrosse 5 rocket 1.7 16:09:01 10° WSW 16:12:40 47° NNW 16:16:15 10° NE
Cosmos 1461 4.1 16:14:10 10° SSE 16:17:13 22° ESE 16:20:09 11° ENE
CENTAUR R/B 3.0 16:11:40 10° WSW 16:17:21 58° NW 16:24:34 10° NE
Meteor 1-20 Rocket 4.5 16:15:27 10° N 16:20:39 43° ENE 16:25:49 10° SE
Cosmos 1455 Rocket 4.2 16:17:25 10° SSW 16:21:34 44° WNW 16:25:46 10° N
Cosmos 1602 Rocket 3.9 16:19:09 10° N 16:23:22 43° ENE 16:27:31 10° SSE
Cosmos 2279 Rocket 4.0 16:17:40 10° S 16:23:49 70° E 16:30:02 10° NNE
Cosmos 1570 Rocket 4.3 16:21:28 10° NNW 16:26:50 76° WSW 16:32:07 10° SSE
SMAP 3.0 16:25:39 10° SSE 16:30:15 65° ENE 16:34:53 10° N
Cosmos 1656 3.7 16:25:59 10° SSW 16:31:34 75° ESE 16:37:16 10° NNE
UNK 3.8 16:28:29 10° NNE 16:33:01 56° E 16:37:29 10° S
YAOGAN 1 3.9 16:31:26 10° ESE 16:34:19 18° ENE 16:37:13 10° NNE
Cosmos 2228 3.6 16:30:58 10° SSW 16:35:08 60° WNW 16:39:22 10° N
NOSS 2-2 (C) 3.7 16:32:28 10° WSW 16:35:28 39° NW 16:38:06 12° NNE
Landsat 7 3.8 16:31:11 10° SSE 16:35:44 57° ENE 16:40:19 10° N
SAR-Lupe-4 3.7 16:32:37 10° SE 16:36:03 47° ENE 16:39:30 10° N
Cosmos 1867 3.7 16:30:58 10° NNW 16:36:19 52° NE 16:41:37 10° ESE
Cosmos 1486 Rocket 4.0 16:31:30 10° S 16:36:38 63° ESE 16:41:50 10° NNE
Cosmos 2297 Rocket 2.2 16:34:40 10° NNW 16:40:23 84° ENE 16:46:03 10° SSE
USA 290 2.1 16:37:09 10° NNW 16:40:25 74° ENE 16:43:39 10° SSE
USA 215 3.8 16:35:28 13° ENE 16:40:57 43° N 16:47:03 10° WNW
Cosmos 2180 Rocket 4.4 16:35:19 10° S 16:41:21 67° E 16:47:28 10° NNE
Cosmos 773 Rocket 4.2 16:38:26 10° NNW 16:43:39 75° WSW 16:48:52 10° SSE
SAR-Lupe-1 4.1 16:41:35 10° SSE 16:45:06 53° ENE 16:48:38 10° N
Cosmos 1782 2.6 16:41:57 10° SSW 16:45:32 79° W 16:49:10 10° N
IRIDIUM 106 4.3 16:41:48 10° N 16:47:01 66° E 16:52:12 10° SSE
ATLAS CENTAUR R/B 1.7 16:44:11 10° NW 16:47:20 49° SW 16:50:23 10° SSE
CZ-4C R/B 2.9 16:41:30 10° NW 16:48:20 76° NE 16:56:54 10° SE
Cosmos 1607 4.0 16:43:21 10° NW 16:49:37 90° WSW 16:55:55 10° SE
Cosmos 1733 3.6 16:48:38 10° NW 16:50:01 24° W 16:51:23 10° SSW
CZ-2D R/B 2.6 16:48:30 10° SSE 16:51:36 68° ENE 16:54:45 10° N
IRS-P3 4.1 16:49:20 10° SSE 16:54:33 62° ENE 16:59:49 10° N
Lacrosse 4 Rocket 3.5 16:52:23 10° W 16:55:25 20° NW 16:58:25 10° N
Meteor 1-25 Rocket 4.3 16:50:15 10° N 16:56:04 64° ENE 17:01:46 10° SSE
ARIANE 5 R/B 2.5 16:51:15 10° SSE 16:56:18 87° ENE 17:01:28 10° NNW
Cosmos 990 Rocket 4.5 16:51:57 10° S 16:56:37 37° ESE 16:59:48 19° NE
Cosmos 2219 4.1 16:52:06 10° NNW 16:56:57 27° NE 16:59:37 20° E
Cosmos 1825 Rocket 3.7 16:52:55 10° N 16:57:10 48° ENE 17:01:20 10° SSE
Cosmos 1758 Rocket 4.4 16:55:10 10° NNW 16:59:22 52° W 17:03:30 10° S
Cosmos 2266 Rocket 3.9 16:53:23 10° N 16:59:36 80° E 17:05:39 10° SSE
Cosmos 2098 Rocket 3.4 16:57:56 10° SSW 17:01:57 69° WNW 17:06:46 10° N
Meteor 1-5 Rocket 4.3 16:58:22 10° N 17:03:32 48° ENE 17:08:46 10° SSE
Cosmos 2151 3.1 17:00:37 10° NNW 17:04:46 75° W 17:08:55 10° S
Cosmos 1743 3.3 17:02:15 10° NNW 17:05:24 48° W 17:08:32 10° S
SPOT 1/Viking Rocket 3.6 17:01:14 10° SE 17:06:16 53° ENE 17:11:21 10° N
Cosmos 1980 Rocket 3.2 17:02:21 10° SSE 17:06:51 25° ESE 17:08:00 23° E
Cosmos 1844 Rocket 4.3 17:07:53 10° N 17:10:59 15° NNE 17:10:59 15° NNE
SL-16 R/B 3.6 17:09:47 10° N 17:15:39 44° WNW 17:21:27 10° SW
Cosmos 2058 Rocket 4.3 17:12:01 10° SE 17:14:42 24° ESE 17:14:42 24° ESE
Cosmos 2263 Rocket 2.4 17:13:14 10° NNW 17:18:44 48° NE 17:23:09 16° SE
NOSS 3-2 (C) 3.1 17:14:16 10° SW 17:19:19 86° SE 17:23:02 24° NE
NOSS 3-2 (A) 3.9 17:14:38 10° WSW 17:19:39 49° NW 17:24:05 18° NNE
CZ-4 R/B 4.2 17:19:13 10° SSE 17:23:09 75° ENE 17:27:06 10° N
GEOS 3 Rocket 4.2 17:19:36 18° NNE 17:23:32 57° NW 17:28:47 10° WSW
MOS 1 Rocket 3.6 17:18:43 10° S 17:23:35 75° W 17:28:45 10° NNW
BREEZE M DEB (TANK) 2.5 17:23:34 10° WSW 17:25:20 42° SSW 17:25:20 42° SSW
Cosmos 1076 Rocket 3.4 17:22:15 10° N 17:26:32 62° ENE 17:30:48 10° SSE
Cosmos 1933 3.2 17:24:16 10° SSW 17:28:06 80° W 17:30:45 19° N
Cosmos 2084 Rocket 4.0 17:27:16 10° NW 17:31:24 55° SW 17:35:31 10° SSE
Cosmos 1606 Rocket 3.5 17:27:10 10° S 17:31:34 84° W 17:35:23 14° N
Cosmos 2227 Rocket 2.1 17:25:52 10° NNW 17:31:34 88° WSW 17:37:13 10° SSE
Cosmos 1538 Rocket 4.0 17:27:19 10° NNW 17:32:31 56° ENE 17:36:28 17° SE
PSLV R/B 3.3 17:36:04 56° E 17:36:15 56° ENE 17:40:14 10° N
CZ-2D R/B 3.3 17:32:49 10° SSE 17:37:01 81° ENE 17:41:12 10° NNW
COSMO-SKYMED 1 2.6 17:39:14 49° ESE 17:39:14 49° ESE 17:42:52 10° S
SL-19 R/B 4.1 17:35:23 10° SSE 17:40:41 68° ENE 17:46:19 10° NNW
Resurs 1-3 3.4 17:36:46 10° SSE 17:41:02 72° ENE 17:45:20 10° N
Cosmos 1503 Rocket 4.5 17:37:09 10° SW 17:42:19 58° WNW 17:46:10 18° NNE
BREEZE-M DEB (TANK) 3.8 17:40:13 10° W 17:43:49 89° SSW 17:48:33 29° ESE
Meteor 2-20 4.3 17:41:03 10° S 17:47:12 77° E 17:53:21 10° NNE
Cosmos 1697 Rocket 2.7 17:42:12 10° SSW 17:47:48 82° WNW 17:50:44 30° NNE
Lacrosse 5 rocket 2.8 17:47:19 10° WNW 17:49:58 22° NNW 17:49:58 22° NNW
Cosmos 1354 Rocket 4.2 17:45:18 10° SSW 17:50:33 70° WNW 17:53:34 26° NNE
BREEZE-M DEB (TANK) 4.2 17:49:18 10° WNW 17:53:06 67° NNE 17:57:03 36° E
Cosmos 1461 3.4 17:49:58 10° WSW 17:53:44 47° NW 17:54:18 43° NNW
Spot 4 Rocket 4.0 17:49:41 10° SSE 17:54:47 82° WSW 17:59:56 10° NNW
IRAS Rocket 4.1 17:50:28 10° SSE 17:55:57 86° ENE 18:01:28 10° NNW
Cosmos 1726 Rocket 4.0 17:52:15 10° SSW 17:56:52 65° WNW 17:59:49 22° N
SL-08 R/B 4.4 17:53:52 10° N 18:00:08 61° ENE 18:06:24 10° SSE
Cosmos 1655 Rocket 4.2 17:54:39 10° NNW 18:00:52 69° W 18:07:00 10° S
SKYMED 2 3.9 17:59:36 34° N 18:01:21 64° WNW 18:05:38 10° SSW
Gbstr 26 Del rocket 3.3 17:59:31 10° WSW 18:02:38 52° SW 18:02:38 52° SW
Cosmos 1898 Rocket 4.2 17:59:51 10° S 18:03:17 38° SSE 18:03:17 38° SSE
Meteor 2-10 4.1 18:02:48 10° NNW 18:08:09 82° W 18:13:41 10° S
Meteor 2-20 Rocket 4.3 18:03:04 10° S 18:09:20 80° E 18:12:30 30° NNE
CENTAUR R/B 4.1 18:04:00 10° WNW 18:09:34 28° NNW 18:12:27 22° NNE
YAOGAN 1 3.1 18:05:35 10° S 18:09:46 57° W 18:13:59 10° NNW
USA 281 4.5 18:17:15 25° NNE 18:17:15 25° NNE 18:20:44 10° NNW
Cosmos 2082 3.7 18:11:52 10° NNW 18:17:03 66° NNE 18:17:03 66° NNE
Meteor 1-26 Rocket 4.0 18:12:56 10° S 18:18:03 79° SSE 18:18:03 79° SSE
USA 238 DEB 3.3 18:13:21 10° SSW 18:19:26 75° SE 18:19:57 70° E
USA 238 3.3 18:13:27 10° SSW 18:19:32 74° SE 18:20:02 70° E
USA 215 3.3 18:22:49 55° NE 18:23:20 57° NNE 18:29:44 10° NW
Cosmos 372 Rocket 4.3 18:22:15 10° SSW 18:26:26 60° SSW 18:26:26 60° SSW
Aureole 1 Rocket 3.9 18:24:08 10° SSW 18:27:16 49° SW 18:27:16 49° SW
CZ-4C R/B 4.5 18:30:04 10° NW 18:36:33 34° WSW 18:44:08 10° S
Cosmos 2219 3.4 18:35:52 10° NNW 18:41:34 67° WSW 18:41:34 67° WSW
Cosmos 1980 Rocket 2.7 18:44:49 10° SW 18:49:48 57° W 18:49:48 57° W
Cosmos 1844 Rocket 4.5 18:50:44 10° NNW 18:52:38 21° NNW 18:52:38 21° NNW
Cosmos 2263 Rocket 3.7 18:57:28 10° NW 19:02:27 33° WSW 19:04:58 23° SSW
